| time (UTC) | temp F | wind direction | speed MPH | gust MPH | rain 1hr in | rain 24hr in | rain mn in | humidity % | barometer mb |
| 20260509032100 | 42 | 158 | 0.0 | 4.0 | 0.00 | 2.54 | 0.00 | 72 | 1016.7 |
| 20260509031556 | 42 | 158 | 2.0 | 4.0 | 0.00 | 2.54 | 0.00 | 72 | 1016.6 |
| 20260509031046 | 42 | 158 | 2.0 | 4.0 | 0.00 | 2.54 | 0.00 | 70 | 1016.7 |
| 20260509030527 | 43 | 158 | 0.0 | 2.0 | 0.00 | 2.54 | 0.00 | 68 | 1016.3 |
| 20260509030025 | 44 | 158 | 0.0 | 4.0 | 0.00 | 2.54 | 0.00 | 65 | 1016.3 |
| 20260509025519 | 44 | 158 | 0.0 | 4.0 | 0.00 | 2.54 | 0.25 | 64 | 1016.0 |
| 20260509025013 | 44 | 135 | 0.0 | 2.0 | 0.00 | 2.54 | 0.25 | 65 | 1015.8 |
| 20260509024511 | 44 | 135 | 1.0 | 2.0 | 0.00 | 2.54 | 0.25 | 66 | 1015.7 |
| 20260509024004 | 43 | 113 | 0.0 | 2.0 | 0.00 | 2.54 | 0.25 | 68 | 1016.0 |
| 20260509023450 | 43 | 113 | 0.0 | 2.0 | 0.00 | 2.54 | 0.25 | 68 | 1015.7 |
| 20260509022938 | 43 | 113 | 0.0 | 0.0 | 0.00 | 2.54 | 0.25 | 70 | 1015.7 |
| 20260509022429 | 43 | 113 | 0.0 | 0.0 | 0.00 | 2.54 | 0.25 | 70 | 1015.6 |
| 20260509021928 | 43 | 113 | 0.0 | 0.0 | 0.00 | 2.54 | 0.25 | 69 | 1015.8 |
| 20260509021637 | 43 | 113 | 0.0 | 2.0 | 0.00 | 2.54 | 0.25 | 67 | 1014.9 |
| 20260509020901 | 43 | 113 | 0.0 | 2.0 | 0.00 | 2.54 | 0.25 | 68 | 1015.1 |
| 20260509020400 | 43 | 113 | 0.0 | 2.0 | 0.00 | 2.54 | 0.25 | 69 | 1015.1 |
| 20260509015845 | 42 | 113 | 0.0 | 2.0 | 0.00 | 2.54 | 0.25 | 72 | 1014.9 |
| 20260509015322 | 42 | 113 | 0.0 | 2.0 | 0.00 | 2.54 | 0.25 | 72 | 1015.0 |
| 20260509014812 | 42 | 68 | 0.0 | 2.0 | 0.00 | 2.54 | 0.25 | 73 | 1014.6 |
| 20260509014258 | 42 | 68 | 0.0 | 2.0 | 0.25 | 2.54 | 0.25 | 72 | 1014.6 |
| 20260509014015 | 42 | 90 | 0.0 | 0.0 | 0.25 | 2.54 | 0.25 | 70 | 1014.0 |
| 20260509014006 | 42 | 90 | 0.0 | 0.0 | 0.25 | 2.54 | 0.25 | 70 | 1013.9 |
| 20260509012946 | 42 | 90 | 0.0 | 0.0 | 0.25 | 2.54 | 0.25 | 69 | 1013.9 |
| 20260509012207 | 42 | 90 | 0.0 | 0.0 | 0.25 | 2.54 | 0.25 | 70 | 1013.8 |
| 20260509011704 | 42 | 90 | 0.0 | 0.0 | 0.25 | 2.54 | 0.25 | 70 | 1013.8 |
| 20260509011144 | 42 | 90 | 0.0 | 0.0 | 0.25 | 2.54 | 0.25 | 70 | 1013.5 |
| 20260509010636 | 42 | 90 | 0.0 | 0.0 | 0.25 | 2.54 | 0.25 | 72 | 1013.4 |
| 20260509010118 | 42 | 90 | 0.0 | 0.0 | 0.25 | 2.54 | 0.25 | 73 | 1012.9 |
| 20260509005605 | 43 | 90 | 0.0 | 0.0 | 0.25 | 2.54 | 0.25 | 72 | 1012.5 |
| 20260509005337 | 43 | 90 | 0.0 | 0.0 | 0.25 | 2.54 | 0.25 | 71 | 1012.6 |
| 20260509004554 | 44 | 90 | 0.0 | 0.0 | 0.25 | 2.54 | 0.25 | 69 | 1012.5 |
| 20260509004045 | 66 | 248 | 0.0 | 0.0 | 0.00 | 2.54 | 0.00 | 85 | 1003.0 |
| 20260509003540 | 66 | 248 | 0.0 | 0.0 | 0.00 | 2.54 | 0.00 | 85 | 1003.0 |
| 20260509003305 | 66 | 248 | 0.0 | 0.0 | 0.00 | 2.54 | 0.00 | 85 | 1003.0 |
| 20260509002525 | 66 | 248 | 0.0 | 0.0 | 0.00 | 2.54 | 0.00 | 85 | 1003.0 |
| 20260509002020 | 66 | 248 | 0.0 | 0.0 | 0.00 | 2.54 | 0.00 | 85 | 1003.0 |
| 20260509001457 | 66 | 248 | 0.0 | 0.0 | 0.00 | 2.54 | 0.00 | 85 | 1003.0 |
| 20260509000952 | 32 | 248 | 0.0 | 0.0 | 0.00 | 2.54 | 0.00 | 10 | 1003.0 |
| 20260509000455 | 66 | 248 | 0.0 | 0.0 | 0.00 | 2.54 | 0.00 | 85 | 1003.0 |
| 20260508235951 | 66 | 248 | 0.0 | 0.0 | 0.00 | 2.54 | 0.00 | 85 | 1003.0 |
| 20260508235447 | 66 | 248 | 0.0 | 0.0 | 0.00 | 2.54 | 0.00 | 85 | 1003.0 |
| 20260508234942 | 66 | 248 | 0.0 | 0.0 | 0.00 | 2.54 | 0.00 | 85 | 1003.0 |
| 20260508234428 | 66 | 248 | 0.0 | 0.0 | 0.00 | 2.54 | 0.00 | 85 | 1003.0 |
| 20260508233925 | 66 | 248 | 0.0 | 0.0 | 0.00 | 2.54 | 0.00 | 85 | 1003.0 |
| 20260508233414 | 66 | 248 | 0.0 | 0.0 | 0.00 | 2.54 | 0.00 | 85 | 1003.0 |
| 20260508232900 | 66 | 248 | 0.0 | 0.0 | 0.00 | 2.54 | 0.00 | 85 | 1003.0 |
| 20260508232339 | 66 | 248 | 0.0 | 0.0 | 0.00 | 2.54 | 0.00 | 85 | 1003.0 |
| 20260508231833 | 66 | 248 | 0.0 | 0.0 | 0.00 | 2.54 | 0.00 | 85 | 1003.0 |
| 20260508231333 | 66 | 248 | 0.0 | 0.0 | 0.00 | 2.54 | 0.00 | 85 | 1003.0 |
| 20260508230828 | 66 | 248 | 0.0 | 0.0 | 0.00 | 2.54 | 0.00 | 85 | 1003.0 |
| 20260508230327 | 66 | 248 | 0.0 | 0.0 | 0.00 | 2.54 | 0.00 | 85 | 1003.0 |
| 20260508230307 | 66 | 248 | 0.0 | 0.0 | 0.00 | 2.54 | 0.00 | 85 | 1003.0 |
| 20260508225307 | 66 | 248 | 0.0 | 0.0 | 0.00 | 2.54 | 0.00 | 85 | 1003.0 |
| 20260508224803 | 66 | 248 | 0.0 | 0.0 | 0.00 | 2.54 | 0.00 | 85 | 1003.0 |
| 20260508224302 | 66 | 248 | 0.0 | 0.0 | 0.00 | 2.54 | 0.00 | 85 | 1003.0 |
| 20260508223746 | 66 | 248 | 0.0 | 0.0 | 0.00 | 2.54 | 0.00 | 85 | 1003.0 |
| 20260508223232 | 66 | 248 | 0.0 | 0.0 | 0.00 | 2.54 | 0.00 | 85 | 1003.0 |
| 20260508222706 | 66 | 248 | 0.0 | 0.0 | 0.00 | 2.54 | 0.00 | 85 | 1003.0 |
| 20260508222148 | 66 | 248 | 0.0 | 0.0 | 0.00 | 2.54 | 0.00 | 85 | 1003.0 |
| 20260508221638 | 66 | 248 | 0.0 | 0.0 | 0.00 | 2.54 | 0.00 | 85 | 1003.0 |
| 20260508221132 | 66 | 248 | 0.0 | 0.0 | 0.00 | 2.54 | 0.00 | 85 | 1003.0 |
| 20260508220622 | 66 | 248 | 0.0 | 0.0 | 0.00 | 2.54 | 0.00 | 85 | 1003.0 |
| 20260508220058 | 66 | 248 | 0.0 | 0.0 | 0.00 | 2.54 | 0.00 | 85 | 1003.0 |
| 20260508215549 | 66 | 248 | 0.0 | 0.0 | 0.00 | 2.54 | 0.00 | 85 | 1003.0 |
| 20260508215047 | 66 | 248 | 0.0 | 0.0 | 0.00 | 2.54 | 0.00 | 85 | 1003.0 |
| 20260508215036 | 66 | 248 | 0.0 | 0.0 | 0.00 | 2.54 | 0.00 | 85 | 1003.0 |
| 20260508214014 | 66 | 248 | 0.0 | 0.0 | 0.00 | 2.54 | 0.00 | 85 | 1003.0 |
| 20260508213514 | 66 | 248 | 0.0 | 0.0 | 0.00 | 2.54 | 0.00 | 85 | 1003.0 |
| 20260508212959 | 66 | 248 | 0.0 | 0.0 | 0.00 | 2.54 | 0.00 | 85 | 1003.0 |
| 20260508212459 | 66 | 248 | 0.0 | 0.0 | 0.00 | 2.54 | 0.00 | 85 | 1003.0 |
| 20260508211943 | 66 | 248 | 0.0 | 0.0 | 0.00 | 2.54 | 0.00 | 85 | 1003.0 |
| 20260508211443 | 66 | 248 | 0.0 | 0.0 | 0.00 | 2.54 | 0.00 | 85 | 1003.0 |
| 20260508210938 | 66 | 248 | 0.0 | 0.0 | 0.00 | 2.54 | 0.00 | 85 | 1003.0 |
| 20260508210438 | 66 | 248 | 0.0 | 0.0 | 0.00 | 2.54 | 0.00 | 85 | 1003.0 |
| 20260508205930 | 66 | 248 | 0.0 | 0.0 | 0.00 | 2.54 | 0.00 | 85 | 1003.0 |
| 20260508205428 | 66 | 248 | 0.0 | 0.0 | 0.00 | 2.54 | 0.00 | 85 | 1003.0 |
| 20260508204924 | 66 | 248 | 0.0 | 0.0 | 0.00 | 2.54 | 0.00 | 85 | 1003.0 |
| 20260508204416 | 32 | 248 | 0.0 | 0.0 | 0.00 | 2.54 | 0.00 | 10 | 1003.0 |
| 20260508203859 | 66 | 248 | 0.0 | 0.0 | 0.00 | 2.54 | 0.00 | 85 | 1003.0 |
| 20260508203344 | 66 | 248 | 0.0 | 0.0 | 0.00 | 2.54 | 0.00 | 85 | 1003.0 |
| 20260508202827 | 66 | 248 | 0.0 | 0.0 | 1.27 | 2.54 | 0.00 | 85 | 1003.0 |
| 20260508202557 | 66 | 248 | 0.0 | 0.0 | 1.27 | 2.54 | 0.00 | 85 | 1003.0 |
| 20260508201823 | 66 | 248 | 0.0 | 0.0 | 1.27 | 2.54 | 0.00 | 85 | 1003.0 |
| 20260508201300 | 66 | 248 | 0.0 | 0.0 | 2.54 | 2.54 | 0.00 | 85 | 1003.0 |
| 20260508200752 | 66 | 248 | 0.0 | 0.0 | 2.54 | 2.54 | 0.00 | 85 | 1003.0 |
| 20260508200238 | 66 | 248 | 0.0 | 0.0 | 2.54 | 2.54 | 0.00 | 85 | 1003.0 |
| 20260508200003 | 66 | 248 | 0.0 | 0.0 | 2.54 | 2.54 | 0.00 | 85 | 1003.0 |
| 20260508195214 | 66 | 248 | 0.0 | 0.0 | 2.54 | 2.54 | 0.00 | 85 | 1003.0 |
| 20260508195201 | 66 | 248 | 0.0 | 0.0 | 2.54 | 2.54 | 0.00 | 85 | 1003.0 |
| 20260508194144 | 32 | 248 | 0.0 | 0.0 | 2.54 | 2.54 | 0.00 | 10 | 1003.0 |
| 20260508193628 | 66 | 248 | 0.0 | 0.0 | 2.54 | 2.54 | 0.00 | 85 | 1003.0 |
| 20260508193120 | 66 | 248 | 0.0 | 0.0 | 1.27 | 1.27 | 0.00 | 85 | 1003.0 |
| 20260508192601 | 66 | 248 | 0.0 | 0.0 | 1.27 | 1.27 | 0.00 | 85 | 1003.0 |
| 20260508192042 | 66 | 248 | 0.0 | 0.0 | 1.27 | 1.27 | 0.00 | 85 | 1003.0 |
| 20260508191523 | 66 | 248 | 0.0 | 0.0 | 0.00 | 0.00 | 0.00 | 85 | 1003.0 |
| 20260508191001 | 66 | 248 | 0.0 | 0.0 | 0.00 | 0.00 | 0.00 | 85 | 1003.0 |
| 20260508190457 | 66 | 248 | 0.0 | 0.0 | 0.00 | 0.00 | 0.00 | 85 | 1003.0 |
| 20260508185950 | 66 | 248 | 0.0 | 15.0 | 0.00 | 0.00 | 0.00 | 85 | 1003.0 |
| 20260508185455 | 58 | 293 | 6.0 | 13.0 | 0.00 | 0.00 | 0.00 | 42 | 1009.5 |
| 20260508185445 | 66 | 315 | 8.0 | 15.0 | 0.00 | 0.00 | 0.00 | 85 | 1009.1 |
| 20260508184424 | 58 | 315 | 5.0 | 18.0 | 0.00 | 0.00 | 0.00 | 43 | 1009.3 |
| 20260508183900 | 58 | 338 | 9.0 | 18.0 | 0.00 | 0.00 | 0.00 | 42 | 1009.5 |
| 20260508183352 | 58 | 338 | 8.0 | 15.0 | 0.00 | 0.00 | 0.00 | 42 | 1009.4 |
| 20260508182841 | 59 | 338 | 7.0 | 13.0 | 0.00 | 0.00 | 0.00 | 30 | 1009.5 |
| 20260508182553 | 59 | 315 | 8.0 | 13.0 | 0.00 | 0.00 | 0.00 | 30 | 1009.3 |
| 20260508182050 | 60 | 315 | 7.0 | 15.0 | 0.00 | 0.00 | 0.00 | 32 | 1009.9 |
| 20260508181536 | 60 | 293 | 5.0 | 15.0 | 0.00 | 0.00 | 0.00 | 31 | 1009.7 |
| 20260508180802 | 60 | 293 | 4.0 | 13.0 | 0.00 | 0.00 | 0.00 | 32 | 1009.6 |
| 20260508180258 | 60 | 225 | 3.0 | 13.0 | 0.00 | 0.00 | 0.00 | 32 | 1009.8 |
| 20260508175744 | 60 | 293 | 4.0 | 13.0 | 0.00 | 0.00 | 0.00 | 32 | 1009.9 |
| 20260508175231 | 60 | 225 | 5.0 | 13.0 | 0.00 | 0.00 | 0.00 | 34 | 1010.1 |
| 20260508174951 | 60 | 248 | 4.0 | 13.0 | 0.00 | 0.00 | 0.00 | 35 | 1010.2 |
| 20260508174202 | 60 | 248 | 4.0 | 13.0 | 0.00 | 0.00 | 0.00 | 34 | 1010.4 |
| 20260508173655 | 59 | 270 | 4.0 | 13.0 | 0.00 | 0.00 | 0.00 | 36 | 1010.4 |
| 20260508173155 | 60 | 315 | 4.0 | 11.0 | 0.00 | 0.00 | 0.00 | 36 | 1010.8 |
| 20260508172652 | 60 | 338 | 4.0 | 13.0 | 0.00 | 0.00 | 0.00 | 35 | 1010.9 |
| 20260508172151 | 59 | 293 | 5.0 | 13.0 | 0.00 | 0.00 | 0.00 | 36 | 1010.9 |
| 20260508171635 | 59 | 293 | 8.0 | 11.0 | 0.00 | 0.00 | 0.00 | 36 | 1010.8 |
| 20260508171110 | 59 | 315 | 4.0 | 11.0 | 0.00 | 0.00 | 0.00 | 36 | 1011.0 |
| 20260508170553 | 58 | 23 | 3.0 | 11.0 | 0.00 | 0.00 | 0.00 | 37 | 1011.0 |
| 20260508170034 | 58 | 293 | 4.0 | 11.0 | 0.00 | 0.00 | 0.00 | 36 | 1011.5 |
| 20260508165530 | 58 | 23 | 4.0 | 11.0 | 0.00 | 0.00 | 0.00 | 36 | 1011.7 |
| 20260508165017 | 58 | 338 | 3.0 | 9.0 | 0.00 | 0.00 | 0.00 | 36 | 1011.7 |
| 20260508164514 | 57 | 68 | 4.0 | 9.0 | 0.00 | 0.00 | 0.00 | 36 | 1012.0 |
| 20260508163955 | 57 | 315 | 4.0 | 9.0 | 0.00 | 0.00 | 0.00 | 36 | 1011.8 |
| 20260508163443 | 57 | 293 | 7.0 | 11.0 | 0.00 | 0.00 | 0.00 | 36 | 1012.1 |
| 20260508162917 | 57 | 315 | 3.0 | 11.0 | 0.00 | 0.00 | 0.00 | 36 | 1012.4 |
| 20260508162625 | 57 | 293 | 4.0 | 9.0 | 0.00 | 0.00 | 0.00 | 36 | 1012.4 |
| 20260508161829 | 56 | 293 | 5.0 | 9.0 | 0.00 | 0.00 | 0.00 | 36 | 1012.3 |
| 20260508161309 | 56 | 338 | 6.0 | 9.0 | 0.00 | 0.00 | 0.00 | 35 | 1012.5 |
| 20260508160801 | 57 | 68 | 4.0 | 9.0 | 0.00 | 0.00 | 0.00 | 36 | 1012.6 |
| 20260508160259 | 56 | 338 | 4.0 | 11.0 | 0.00 | 0.00 | 0.00 | 36 | 1012.7 |
| 20260508155742 | 56 | 315 | 7.0 | 11.0 | 0.00 | 0.00 | 0.00 | 36 | 1012.8 |
| 20260508155229 | 56 | 315 | 7.0 | 11.0 | 0.00 | 0.00 | 0.00 | 35 | 1013.1 |
| 20260508154948 | 57 | 315 | 3.0 | 9.0 | 0.00 | 0.00 | 0.00 | 36 | 1012.8 |
| 20260508154159 | 56 | 338 | 3.0 | 11.0 | 0.00 | 0.00 | 0.00 | 35 | 1012.9 |
| 20260508153643 | 57 | 338 | 4.0 | 11.0 | 0.00 | 0.00 | 0.00 | 36 | 1012.8 |
| 20260508153408 | 57 | 315 | 4.0 | 11.0 | 0.00 | 0.00 | 0.00 | 37 | 1013.0 |
| 20260508152634 | 57 | 338 | 5.0 | 9.0 | 0.00 | 0.00 | 0.00 | 37 | 1013.0 |
| 20260508152404 | 58 | 315 | 4.0 | 9.0 | 0.00 | 0.00 | 0.00 | 36 | 1013.0 |
| 20260508151612 | 57 | 0 | 3.0 | 9.0 | 0.00 | 0.00 | 0.00 | 38 | 1013.1 |
| 20260508151048 | 58 | 270 | 4.0 | 9.0 | 0.00 | 0.00 | 0.00 | 36 | 1013.1 |
| 20260508150755 | 57 | 338 | 6.0 | 9.0 | 0.00 | 0.00 | 0.00 | 34 | 1013.1 |
| 20260508150006 | 58 | 293 | 4.0 | 11.0 | 0.00 | 0.00 | 0.00 | 34 | 1013.1 |
| 20260508145451 | 58 | 23 | 4.0 | 11.0 | 0.00 | 0.00 | 0.00 | 34 | 1013.2 |
| 20260508144949 | 58 | 0 | 5.0 | 9.0 | 0.00 | 0.00 | 0.00 | 34 | 1013.1 |
| 20260508144939 | 58 | 23 | 3.0 | 9.0 | 0.00 | 0.00 | 0.00 | 34 | 1013.1 |
| 20260508143932 | 58 | 23 | 3.0 | 9.0 | 0.00 | 0.00 | 0.00 | 33 | 1013.2 |
| 20260508143652 | 58 | 23 | 4.0 | 9.0 | 0.00 | 0.00 | 0.00 | 33 | 1013.5 |
| 20260508142857 | 58 | 23 | 5.0 | 9.0 | 0.00 | 0.00 | 0.00 | 33 | 1013.6 |
| 20260508142627 | 58 | 338 | 3.0 | 9.0 | 0.00 | 0.00 | 0.00 | 33 | 1013.7 |
| 20260508141833 | 58 | 338 | 3.0 | 9.0 | 0.00 | 0.00 | 0.00 | 33 | 1013.7 |
| 20260508141557 | 57 | 315 | 3.0 | 8.0 | 0.00 | 0.00 | 0.00 | 31 | 1013.7 |
| 20260508140819 | 57 | 0 | 5.0 | 7.0 | 0.00 | 0.00 | 0.00 | 31 | 1013.8 |
| 20260508140542 | 58 | 23 | 2.0 | 6.0 | 0.00 | 0.00 | 0.00 | 32 | 1013.7 |
| 20260508135800 | 56 | 0 | 2.0 | 6.0 | 0.00 | 0.00 | 0.00 | 33 | 1013.8 |
| 20260508135241 | 57 | 0 | 2.0 | 7.0 | 0.00 | 0.00 | 0.00 | 32 | 1013.7 |
| 20260508134718 | 56 | 338 | 3.0 | 7.0 | 0.00 | 0.00 | 0.00 | 31 | 1013.7 |
| 20260508134444 | 55 | 338 | 3.0 | 6.0 | 0.00 | 0.00 | 0.00 | 32 | 1013.5 |
| 20260508133939 | 55 | 338 | 4.0 | 7.0 | 0.00 | 0.00 | 0.00 | 32 | 1013.8 |
| 20260508133203 | 55 | 293 | 4.0 | 7.0 | 0.00 | 0.00 | 0.00 | 34 | 1013.7 |
| 20260508132656 | 55 | 315 | 4.0 | 7.0 | 0.00 | 0.00 | 0.00 | 33 | 1013.6 |
| 20260508132154 | 55 | 315 | 3.0 | 4.0 | 0.00 | 0.00 | 0.00 | 34 | 1013.6 |
| 20260508131643 | 54 | 338 | 2.0 | 4.0 | 0.00 | 0.00 | 0.00 | 35 | 1013.8 |
| 20260508131122 | 54 | 338 | 0.0 | 4.0 | 0.00 | 0.00 | 0.00 | 38 | 1014.0 |
| 20260508130616 | 52 | 270 | 3.0 | 4.0 | 0.00 | 0.00 | 0.00 | 37 | 1013.8 |
| 20260508130103 | 54 | 225 | 0.0 | 2.0 | 0.00 | 0.00 | 0.00 | 37 | 1013.7 |
| 20260508125556 | 54 | 135 | 0.0 | 0.0 | 0.00 | 0.00 | 0.00 | 36 | 1013.7 |
| 20260508125045 | 55 | 158 | 0.0 | 0.0 | 0.00 | 0.00 | 0.00 | 37 | 1013.6 |
| 20260508124805 | 52 | 180 | 0.0 | 0.0 | 0.00 | 0.00 | 0.00 | 44 | 1013.8 |
| 20260508124016 | 50 | 180 | 0.0 | 0.0 | 0.00 | 0.00 | 0.00 | 45 | 1013.8 |
| 20260508123456 | 50 | 180 | 0.0 | 2.0 | 0.00 | 0.00 | 0.00 | 48 | 1013.8 |
| 20260508122935 | 48 | 180 | 0.0 | 2.0 | 0.00 | 0.00 | 0.00 | 49 | 1013.6 |
| 20260508122414 | 47 | 203 | 0.0 | 0.0 | 0.00 | 0.00 | 0.00 | 51 | 1013.4 |
| 20260508121907 | 47 | 203 | 0.0 | 2.0 | 0.00 | 0.00 | 0.00 | 50 | 1013.6 |
| 20260508121358 | 46 | 203 | 0.0 | 2.0 | 0.00 | 0.00 | 0.00 | 54 | 1013.4 |
| 20260508121108 | 44 | 203 | 0.0 | 2.0 | 0.00 | 0.00 | 0.00 | 55 | 1013.2 |
| 20260508120313 | 43 | 203 | 1.0 | 2.0 | 0.00 | 0.00 | 0.00 | 55 | 1013.4 |
| 20260508115804 | 43 | 158 | 0.0 | 2.0 | 0.00 | 0.00 | 0.00 | 58 | 1013.2 |
| 20260508115250 | 42 | 158 | 0.0 | 2.0 | 0.00 | 0.00 | 0.00 | 59 | 1013.1 |
| 20260508115011 | 39 | 225 | 2.0 | 2.0 | 0.00 | 0.01 | 0.00 | 62 | 1013.0 |
| 20260508114226 | 38 | 203 | 0.0 | 4.0 | 0.00 | 0.01 | 0.00 | 67 | 1012.9 |
| 20260508113704 | 38 | 203 | 0.0 | 4.0 | 0.00 | 0.01 | 0.00 | 66 | 1012.9 |
| 20260508113147 | 38 | 158 | 0.0 | 2.0 | 0.00 | 0.01 | 0.00 | 65 | 1012.7 |
| 20260508112624 | 37 | 180 | 0.0 | 2.0 | 0.00 | 0.01 | 0.00 | 65 | 1012.7 |
| 20260508112107 | 37 | 180 | 1.0 | 2.0 | 0.00 | 0.04 | 0.00 | 63 | 1012.9 |
| 20260508111556 | 37 | 180 | 0.0 | 4.0 | 0.00 | 0.06 | 0.00 | 65 | 1012.9 |
| 20260508111030 | 37 | 180 | 1.0 | 4.0 | 0.00 | 0.11 | 0.00 | 64 | 1012.7 |
| 20260508110521 | 37 | 203 | 0.0 | 4.0 | 0.00 | 0.13 | 0.00 | 64 | 1012.5 |
| 20260508110009 | 37 | 203 | 1.0 | 4.0 | 0.00 | 0.17 | 0.00 | 64 | 1012.6 |
| 20260508105453 | 37 | 225 | 0.0 | 2.0 | 0.00 | 0.19 | 0.00 | 63 | 1012.3 |
| 20260508104948 | 37 | 203 | 0.0 | 2.0 | 0.00 | 0.20 | 0.00 | 64 | 1012.4 |
| 20260508104433 | 38 | 180 | 0.0 | 2.0 | 0.00 | 0.21 | 0.00 | 61 | 1012.3 |
| 20260508103929 | 38 | 180 | 0.0 | 2.0 | 0.00 | 0.22 | 0.00 | 60 | 1012.4 |
| 20260508103427 | 38 | 180 | 0.0 | 0.0 | 0.00 | 0.24 | 0.00 | 60 | 1012.0 |
| 20260508102912 | 39 | 180 | 0.0 | 0.0 | 0.00 | 0.24 | 0.00 | 56 | 1012.4 |
| 20260508102623 | 38 | 180 | 0.0 | 2.0 | 0.00 | 0.25 | 0.00 | 57 | 1011.9 |
| 20260508101838 | 38 | 203 | 1.0 | 2.0 | 0.00 | 0.25 | 0.00 | 57 | 1012.0 |
| 20260508101820 | 38 | 180 | 0.0 | 2.0 | 0.00 | 0.25 | 0.00 | 56 | 1012.0 |
| 20260508100802 | 39 | 180 | 1.0 | 2.0 | 0.00 | 0.25 | 0.00 | 53 | 1012.0 |
| 20260508100250 | 39 | 180 | 2.0 | 2.0 | 0.00 | 0.25 | 0.00 | 51 | 1011.8 |
| 20260508095746 | 40 | 158 | 0.0 | 0.0 | 0.00 | 0.25 | 0.00 | 49 | 1011.9 |
| 20260508095237 | 41 | 158 | 0.0 | 4.0 | 0.00 | 0.25 | 0.00 | 48 | 1011.6 |
| 20260508094725 | 41 | 158 | 0.0 | 4.0 | 0.00 | 0.25 | 0.00 | 47 | 1011.6 |
| 20260508094209 | 41 | 135 | 0.0 | 4.0 | 0.00 | 0.25 | 0.00 | 46 | 1011.2 |
| 20260508093936 | 41 | 158 | 1.0 | 4.0 | 0.00 | 0.25 | 0.00 | 46 | 1011.4 |
| 20260508093146 | 41 | 158 | 1.0 | 4.0 | 0.00 | 0.25 | 0.00 | 47 | 1011.5 |
| 20260508092635 | 40 | 135 | 1.0 | 4.0 | 0.00 | 0.25 | 0.00 | 49 | 1011.4 |
| 20260508092127 | 40 | 135 | 2.0 | 4.0 | 0.00 | 0.25 | 0.00 | 52 | 1011.6 |
| 20260508091616 | 40 | 158 | 1.0 | 2.0 | 0.00 | 0.25 | 0.00 | 53 | 1011.5 |
| 20260508091114 | 40 | 158 | 1.0 | 2.0 | 0.00 | 0.25 | 0.00 | 54 | 1011.3 |
| 20260508090841 | 41 | 158 | 1.0 | 2.0 | 0.00 | 0.25 | 0.00 | 53 | 1011.3 |
| 20260508085556 | 41 | 180 | 0.0 | 2.0 | 0.00 | 0.25 | 0.00 | 54 | 1010.9 |
| 20260508085053 | 41 | 158 | 0.0 | 2.0 | 0.00 | 0.25 | 0.00 | 52 | 1010.8 |
| 20260508084552 | 41 | 158 | 0.0 | 2.0 | 0.00 | 0.25 | 0.00 | 52 | 1010.8 |
| 20260508084044 | 41 | 158 | 0.0 | 2.0 | 0.00 | 0.25 | 0.00 | 52 | 1010.9 |
| 20260508083522 | 42 | 158 | 1.0 | 2.0 | 0.00 | 0.25 | 0.00 | 50 | 1010.9 |
| 20260508083005 | 42 | 180 | 1.0 | 2.0 | 0.00 | 0.25 | 0.00 | 50 | 1010.7 |
| 20260508082453 | 42 | 158 | 0.0 | 2.0 | 0.00 | 0.25 | 0.00 | 50 | 1010.5 |
| 20260508081952 | 41 | 158 | 0.0 | 2.0 | 0.00 | 0.25 | 0.00 | 52 | 1010.6 |
| 20260508081444 | 39 | 158 | 0.0 | 4.0 | 0.00 | 0.25 | 0.00 | 61 | 1010.6 |
| 20260508080924 | 38 | 158 | 0.0 | 4.0 | 0.00 | 0.25 | 0.00 | 68 | 1010.7 |
| 20260508080421 | 38 | 203 | 0.0 | 4.0 | 0.00 | 0.25 | 0.00 | 70 | 1010.5 |
| 20260508075858 | 38 | 180 | 2.0 | 4.0 | 0.00 | 0.25 | 0.00 | 71 | 1010.4 |
| 20260508075356 | 39 | 180 | 1.0 | 2.0 | 0.00 | 0.25 | 0.00 | 69 | 1010.4 |
| 20260508075140 | 39 | 158 | 0.0 | 0.0 | 0.00 | 0.25 | 0.00 | 69 | 1010.4 |
| 20260508074345 | 39 | 135 | 0.0 | 2.0 | 0.00 | 0.25 | 0.00 | 69 | 1010.4 |
| 20260508073832 | 39 | 180 | 0.0 | 2.0 | 0.00 | 0.25 | 0.00 | 68 | 1010.5 |
| 20260508073311 | 40 | 180 | 2.0 | 2.0 | 0.00 | 0.25 | 0.00 | 66 | 1010.6 |
| 20260508073033 | 40 | 158 | 0.0 | 0.0 | 0.00 | 0.25 | 0.00 | 64 | 1010.4 |
| 20260508072244 | 40 | 158 | 0.0 | 0.0 | 0.00 | 0.25 | 0.00 | 64 | 1010.4 |
| 20260508071729 | 41 | 158 | 0.0 | 0.0 | 0.00 | 0.25 | 0.00 | 65 | 1010.6 |
| 20260508071228 | 40 | 158 | 0.0 | 0.0 | 0.00 | 0.25 | 0.00 | 62 | 1010.4 |
| 20260508070726 | 41 | 158 | 0.0 | 0.0 | 0.00 | 0.25 | 0.00 | 60 | 1010.4 |
| 20260508070450 | 41 | 158 | 0.0 | 0.0 | 0.00 | 0.25 | 0.00 | 59 | 1010.3 |
| 20260508065706 | 41 | 158 | 0.0 | 0.0 | 0.00 | 0.25 | 0.00 | 61 | 1010.4 |
| 20260508065147 | 41 | 158 | 0.0 | 0.0 | 0.00 | 0.25 | 0.00 | 60 | 1010.7 |
| 20260508064631 | 42 | 158 | 0.0 | 2.0 | 0.00 | 0.25 | 0.00 | 64 | 1010.6 |
| 20260508064122 | 42 | 158 | 0.0 | 2.0 | 0.00 | 0.25 | 0.00 | 63 | 1010.4 |
| 20260508063601 | 43 | 135 | 0.0 | 0.0 | 0.00 | 0.25 | 0.00 | 61 | 1010.7 |
| 20260508063050 | 43 | 135 | 0.0 | 0.0 | 0.00 | 0.25 | 0.00 | 56 | 1010.8 |
| 20260508062543 | 43 | 158 | 0.0 | 0.0 | 0.00 | 0.25 | 0.00 | 57 | 1010.7 |
| 20260508062306 | 43 | 158 | 0.0 | 2.0 | 0.00 | 0.25 | 0.00 | 54 | 1010.7 |
| 20260508061521 | 44 | 158 | 0.0 | 2.0 | 0.00 | 0.25 | 0.00 | 56 | 1010.8 |
| 20260508061010 | 45 | 158 | 0.0 | 0.0 | 0.00 | 0.25 | 0.00 | 45 | 1010.9 |
| 20260508060510 | 44 | 158 | 0.0 | 0.0 | 0.00 | 0.25 | 0.00 | 54 | 1011.0 |
| 20260508060217 | 45 | 158 | 0.0 | 0.0 | 0.00 | 0.25 | 0.00 | 55 | 1010.8 |
| 20260508055431 | 45 | 158 | 0.0 | 0.0 | 0.00 | 0.25 | 0.00 | 54 | 1010.8 |
| 20260508054910 | 44 | 180 | 0.0 | 0.0 | 0.00 | 0.25 | 0.00 | 52 | 1010.8 |
| 20260508054410 | 44 | 158 | 0.0 | 4.0 | 0.00 | 0.25 | 0.00 | 53 | 1011.3 |
| 20260508053905 | 44 | 158 | 0.0 | 4.0 | 0.00 | 0.25 | 0.00 | 59 | 1011.0 |
| 20260508053357 | 43 | 180 | 1.0 | 2.0 | 0.00 | 0.25 | 0.00 | 58 | 1011.3 |
| 20260508052849 | 44 | 180 | 0.0 | 0.0 | 0.00 | 0.25 | 0.00 | 66 | 1011.2 |
| 20260508052604 | 44 | 180 | 0.0 | 0.0 | 0.00 | 0.25 | 0.00 | 62 | 1011.3 |
| 20260508051829 | 44 | 180 | 0.0 | 0.0 | 0.00 | 0.25 | 0.00 | 62 | 1011.0 |
| 20260508051327 | 44 | 180 | 0.0 | 0.0 | 0.00 | 0.25 | 0.00 | 62 | 1011.0 |
| 20260508050812 | 45 | 180 | 0.0 | 2.0 | 0.00 | 0.25 | 0.00 | 61 | 1011.3 |
| 20260508050551 | 47 | 180 | 0.0 | 2.0 | 0.00 | 0.25 | 0.00 | 56 | 1011.2 |
| 20260508050310 | 45 | 180 | 0.0 | 2.0 | 0.00 | 0.25 | 0.00 | 59 | 1011.2 |
| 20260508045253 | 47 | 158 | 0.0 | 0.0 | 0.00 | 0.25 | 0.00 | 45 | 1011.4 |
| 20260508044750 | 48 | 158 | 0.0 | 0.0 | 0.00 | 0.25 | 0.00 | 40 | 1011.2 |
| 20260508044226 | 47 | 158 | 0.0 | 0.0 | 0.00 | 0.25 | 0.00 | 40 | 1011.3 |
| 20260508043719 | 47 | 158 | 0.0 | 0.0 | 0.00 | 0.25 | 0.00 | 43 | 1011.3 |
| 20260508043203 | 47 | 158 | 0.0 | 0.0 | 0.00 | 0.25 | 0.00 | 42 | 1011.3 |
| 20260508042656 | 47 | 158 | 0.0 | 0.0 | 0.00 | 0.25 | 0.00 | 44 | 1011.3 |
| 20260508042153 | 47 | 158 | 0.0 | 0.0 | 0.00 | 0.25 | 0.00 | 39 | 1011.2 |
| 20260508041907 | 47 | 180 | 0.0 | 0.0 | 0.00 | 0.25 | 0.00 | 42 | 1010.7 |
| 20260508041125 | 47 | 180 | 0.0 | 0.0 | 0.00 | 0.25 | 0.00 | 42 | 1010.9 |
| 20260508040617 | 48 | 180 | 0.0 | 0.0 | 0.00 | 0.25 | 0.00 | 43 | 1010.8 |
| 20260508040118 | 48 | 180 | 0.0 | 0.0 | 0.00 | 0.25 | 0.00 | 42 | 1011.2 |
| 20260508035551 | 47 | 180 | 0.0 | 2.0 | 0.00 | 0.25 | 0.00 | 45 | 1010.8 |
| 20260508035040 | 47 | 180 | 0.0 | 2.0 | 0.00 | 0.25 | 0.00 | 42 | 1011.0 |
| 20260508034523 | 47 | 180 | 0.0 | 0.0 | 0.00 | 0.25 | 0.00 | 47 | 1011.0 |
| 20260508034014 | 45 | 203 | 0.0 | 0.0 | 0.00 | 0.25 | 0.00 | 58 | 1011.0 |
| 20260508033459 | 46 | 203 | 0.0 | 0.0 | 0.00 | 0.25 | 0.00 | 60 | 1010.9 |
| 20260508032940 | 46 | 203 | 0.0 | 0.0 | 0.00 | 0.25 | 0.00 | 56 | 1010.9 |